Year,Month,Day,Hour,Minute,Value (Times are PST for insolation in W/m^2)
2007,08,08,00,00,0.00
2007,08,08,00,01,0.00
2007,08,08,00,02,0.00
2007,08,08,00,03,0.00
2007,08,08,00,04,0.00
2007,08,08,00,05,0.00
2007,08,08,00,06,0.00
2007,08,08,00,07,0.00
2007,08,08,00,08,0.00
2007,08,08,00,09,0.00
2007,08,08,00,10,0.00
2007,08,08,00,11,0.00
2007,08,08,00,12,0.00
2007,08,08,00,13,0.00
2007,08,08,00,14,0.00
2007,08,08,00,15,0.00
2007,08,08,00,16,0.00
2007,08,08,00,17,0.00
2007,08,08,00,18,0.00
2007,08,08,00,19,0.00
2007,08,08,00,20,0.00
2007,08,08,00,21,0.00
2007,08,08,00,22,0.00
2007,08,08,00,23,0.00
2007,08,08,00,24,0.00
2007,08,08,00,25,0.00
2007,08,08,00,26,0.00
2007,08,08,00,27,0.00
2007,08,08,00,28,0.00
2007,08,08,00,29,0.00
2007,08,08,00,30,0.00
2007,08,08,00,31,0.00
2007,08,08,00,32,0.00
2007,08,08,00,33,0.00
2007,08,08,00,34,0.00
2007,08,08,00,35,0.00
2007,08,08,00,36,0.00
2007,08,08,00,37,0.00
2007,08,08,00,38,0.00
2007,08,08,00,39,0.00
2007,08,08,00,40,0.00
2007,08,08,00,41,0.00
2007,08,08,00,42,0.00
2007,08,08,00,43,0.00
2007,08,08,00,44,0.00
2007,08,08,00,45,0.00
2007,08,08,00,46,0.00
2007,08,08,00,47,0.00
2007,08,08,00,48,0.00
2007,08,08,00,49,0.00
2007,08,08,00,50,0.00
2007,08,08,00,51,0.00
2007,08,08,00,52,0.00
2007,08,08,00,53,0.00
2007,08,08,00,54,0.00
2007,08,08,00,55,0.00
2007,08,08,00,56,0.00
2007,08,08,00,57,0.00
2007,08,08,00,58,0.00
2007,08,08,00,59,0.00
2007,08,08,01,00,0.00
2007,08,08,01,01,0.00
2007,08,08,01,02,0.00
2007,08,08,01,03,0.00
2007,08,08,01,04,0.00
2007,08,08,01,05,0.00
2007,08,08,01,06,0.00
2007,08,08,01,07,0.00
2007,08,08,01,08,0.00
2007,08,08,01,09,0.00
2007,08,08,01,10,0.00
2007,08,08,01,11,0.00
2007,08,08,01,12,0.00
2007,08,08,01,13,0.00
2007,08,08,01,14,0.00
2007,08,08,01,15,0.00
2007,08,08,01,16,0.00
2007,08,08,01,17,0.00
2007,08,08,01,18,0.00
2007,08,08,01,19,0.00
2007,08,08,01,20,0.00
2007,08,08,01,21,0.00
2007,08,08,01,22,0.00
2007,08,08,01,23,0.00
2007,08,08,01,24,0.00
2007,08,08,01,25,0.00
2007,08,08,01,26,0.00
2007,08,08,01,27,0.00
2007,08,08,01,28,0.00
2007,08,08,01,29,0.00
2007,08,08,01,30,0.00
2007,08,08,01,31,0.00
2007,08,08,01,32,0.00
2007,08,08,01,33,0.00
2007,08,08,01,34,0.00
2007,08,08,01,35,0.00
2007,08,08,01,36,0.00
2007,08,08,01,37,0.00
2007,08,08,01,38,0.00
2007,08,08,01,39,0.00
2007,08,08,01,40,0.00
2007,08,08,01,41,0.00
2007,08,08,01,42,0.00
2007,08,08,01,43,0.00
2007,08,08,01,44,0.00
2007,08,08,01,45,0.00
2007,08,08,01,46,0.00
2007,08,08,01,47,0.00
2007,08,08,01,48,0.00
2007,08,08,01,49,0.00
2007,08,08,01,50,0.00
2007,08,08,01,51,0.00
2007,08,08,01,52,0.00
2007,08,08,01,53,0.00
2007,08,08,01,54,0.00
2007,08,08,01,55,0.00
2007,08,08,01,56,0.00
2007,08,08,01,57,0.00
2007,08,08,01,58,0.00
2007,08,08,01,59,0.00
2007,08,08,02,00,0.00
2007,08,08,02,01,0.00
2007,08,08,02,02,0.00
2007,08,08,02,03,0.00
2007,08,08,02,04,0.00
2007,08,08,02,05,0.00
2007,08,08,02,06,0.00
2007,08,08,02,07,0.00
2007,08,08,02,08,0.00
2007,08,08,02,09,0.00
2007,08,08,02,10,0.00
2007,08,08,02,11,0.00
2007,08,08,02,12,0.00
2007,08,08,02,13,0.00
2007,08,08,02,14,0.00
2007,08,08,02,15,0.00
2007,08,08,02,16,0.00
2007,08,08,02,17,0.00
2007,08,08,02,18,0.00
2007,08,08,02,19,0.00
2007,08,08,02,20,0.00
2007,08,08,02,21,0.00
2007,08,08,02,22,0.00
2007,08,08,02,23,0.00
2007,08,08,02,24,0.00
2007,08,08,02,25,0.00
2007,08,08,02,26,0.00
2007,08,08,02,27,0.00
2007,08,08,02,28,0.00
2007,08,08,02,29,0.00
2007,08,08,02,30,0.00
2007,08,08,02,31,0.00
2007,08,08,02,32,0.00
2007,08,08,02,33,0.00
2007,08,08,02,34,0.00
2007,08,08,02,35,0.00
2007,08,08,02,36,0.00
2007,08,08,02,37,0.00
2007,08,08,02,38,0.00
2007,08,08,02,39,0.00
2007,08,08,02,40,0.00
2007,08,08,02,41,0.00
2007,08,08,02,42,0.00
2007,08,08,02,43,0.00
2007,08,08,02,44,0.00
2007,08,08,02,45,0.00
2007,08,08,02,46,0.00
2007,08,08,02,47,0.00
2007,08,08,02,48,0.00
2007,08,08,02,49,0.00
2007,08,08,02,50,0.00
2007,08,08,02,51,0.00
2007,08,08,02,52,0.00
2007,08,08,02,53,0.00
2007,08,08,02,54,0.00
2007,08,08,02,55,0.00
2007,08,08,02,56,0.00
2007,08,08,02,57,0.00
2007,08,08,02,58,0.00
2007,08,08,02,59,0.00
2007,08,08,03,00,0.00
2007,08,08,03,01,0.00
2007,08,08,03,02,0.00
2007,08,08,03,03,0.00
2007,08,08,03,04,0.00
2007,08,08,03,05,0.00
2007,08,08,03,06,0.00
2007,08,08,03,07,0.00
2007,08,08,03,08,0.00
2007,08,08,03,09,0.00
2007,08,08,03,10,0.00
2007,08,08,03,11,0.00
2007,08,08,03,12,0.00
2007,08,08,03,13,0.00
2007,08,08,03,14,0.00
2007,08,08,03,15,0.00
2007,08,08,03,16,0.00
2007,08,08,03,17,0.00
2007,08,08,03,18,0.00
2007,08,08,03,19,0.00
2007,08,08,03,20,0.00
2007,08,08,03,21,0.00
2007,08,08,03,22,0.00
2007,08,08,03,23,0.00
2007,08,08,03,24,0.00
2007,08,08,03,25,0.00
2007,08,08,03,26,0.00
2007,08,08,03,27,0.00
2007,08,08,03,28,0.00
2007,08,08,03,29,0.00
2007,08,08,03,30,0.00
2007,08,08,03,31,0.00
2007,08,08,03,32,0.00
2007,08,08,03,33,0.00
2007,08,08,03,34,0.00
2007,08,08,03,35,0.00
2007,08,08,03,36,0.00
2007,08,08,03,37,0.00
2007,08,08,03,38,0.00
2007,08,08,03,39,0.00
2007,08,08,03,40,0.00
2007,08,08,03,41,0.00
2007,08,08,03,42,0.00
2007,08,08,03,43,0.00
2007,08,08,03,44,0.00
2007,08,08,03,45,0.00
2007,08,08,03,46,0.00
2007,08,08,03,47,0.00
2007,08,08,03,48,0.00
2007,08,08,03,49,0.00
2007,08,08,03,50,0.00
2007,08,08,03,51,0.00
2007,08,08,03,52,0.00
2007,08,08,03,53,0.00
2007,08,08,03,54,0.00
2007,08,08,03,55,0.00
2007,08,08,03,56,0.00
2007,08,08,03,57,0.00
2007,08,08,03,58,0.00
2007,08,08,03,59,0.00
2007,08,08,04,00,0.00
2007,08,08,04,01,0.00
2007,08,08,04,02,0.00
2007,08,08,04,03,0.00
2007,08,08,04,04,0.00
2007,08,08,04,05,0.00
2007,08,08,04,06,0.00
2007,08,08,04,07,0.00
2007,08,08,04,08,0.00
2007,08,08,04,09,0.00
2007,08,08,04,10,0.00
2007,08,08,04,11,0.00
2007,08,08,04,12,0.00
2007,08,08,04,13,0.00
2007,08,08,04,14,0.00
2007,08,08,04,15,0.00
2007,08,08,04,16,0.00
2007,08,08,04,17,0.00
2007,08,08,04,18,0.00
2007,08,08,04,19,0.00
2007,08,08,04,20,0.00
2007,08,08,04,21,0.00
2007,08,08,04,22,0.00
2007,08,08,04,23,0.00
2007,08,08,04,24,0.00
2007,08,08,04,25,0.00
2007,08,08,04,26,0.00
2007,08,08,04,27,0.00
2007,08,08,04,28,0.00
2007,08,08,04,29,0.00
2007,08,08,04,30,0.00
2007,08,08,04,31,0.00
2007,08,08,04,32,0.00
2007,08,08,04,33,0.00
2007,08,08,04,34,0.00
2007,08,08,04,35,0.00
2007,08,08,04,36,0.00
2007,08,08,04,37,0.00
2007,08,08,04,38,0.00
2007,08,08,04,39,0.00
2007,08,08,04,40,0.00
2007,08,08,04,41,0.00
2007,08,08,04,42,0.00
2007,08,08,04,43,0.00
2007,08,08,04,44,0.00
2007,08,08,04,45,0.00
2007,08,08,04,46,0.00
2007,08,08,04,47,0.00
2007,08,08,04,48,0.00
2007,08,08,04,49,0.00
2007,08,08,04,50,0.00
2007,08,08,04,51,0.00
2007,08,08,04,52,0.00
2007,08,08,04,53,0.00
2007,08,08,04,54,0.00
2007,08,08,04,55,0.00
2007,08,08,04,56,0.00
2007,08,08,04,57,0.00
2007,08,08,04,58,0.00
2007,08,08,04,59,0.00
2007,08,08,05,00,0.00
2007,08,08,05,01,0.00
2007,08,08,05,02,0.00
2007,08,08,05,03,0.00
2007,08,08,05,04,0.00
2007,08,08,05,05,0.00
2007,08,08,05,06,0.00
2007,08,08,05,07,0.00
2007,08,08,05,08,0.00
2007,08,08,05,09,0.00
2007,08,08,05,10,0.00
2007,08,08,05,11,0.00
2007,08,08,05,12,0.00
2007,08,08,05,13,0.00
2007,08,08,05,14,0.00
2007,08,08,05,15,0.00
2007,08,08,05,16,0.00
2007,08,08,05,17,0.00
2007,08,08,05,18,0.00
2007,08,08,05,19,0.00
2007,08,08,05,20,0.00
2007,08,08,05,21,0.00
2007,08,08,05,22,0.00
2007,08,08,05,23,0.00
2007,08,08,05,24,0.00
2007,08,08,05,25,0.00
2007,08,08,05,26,0.00
2007,08,08,05,27,0.00
2007,08,08,05,28,0.00
2007,08,08,05,29,0.00
2007,08,08,05,30,0.00
2007,08,08,05,31,0.00
2007,08,08,05,32,0.00
2007,08,08,05,33,0.00
2007,08,08,05,34,0.00
2007,08,08,05,35,0.00
2007,08,08,05,36,0.00
2007,08,08,05,37,0.00
2007,08,08,05,38,0.00
2007,08,08,05,39,0.00
2007,08,08,05,40,0.00
2007,08,08,05,41,0.00
2007,08,08,05,42,0.00
2007,08,08,05,43,0.00
2007,08,08,05,44,0.00
2007,08,08,05,45,0.00
2007,08,08,05,46,0.00
2007,08,08,05,47,0.00
2007,08,08,05,48,0.00
2007,08,08,05,49,0.00
2007,08,08,05,50,0.00
2007,08,08,05,51,0.00
2007,08,08,05,52,0.00
2007,08,08,05,53,0.00
2007,08,08,05,54,0.00
2007,08,08,05,55,0.00
2007,08,08,05,56,0.00
2007,08,08,05,57,0.00
2007,08,08,05,58,0.00
2007,08,08,05,59,0.00
2007,08,08,06,00,0.00
2007,08,08,06,01,0.00
2007,08,08,06,02,0.00
2007,08,08,06,03,0.00
2007,08,08,06,04,0.00
2007,08,08,06,05,0.00
2007,08,08,06,06,0.00
2007,08,08,06,07,0.00
2007,08,08,06,08,0.00
2007,08,08,06,09,0.00
2007,08,08,06,10,0.00
2007,08,08,06,11,0.00
2007,08,08,06,12,0.00
2007,08,08,06,13,0.00
2007,08,08,06,14,0.00
2007,08,08,06,15,0.00
2007,08,08,06,16,0.00
2007,08,08,06,17,0.00
2007,08,08,06,18,2.50
2007,08,08,06,19,5.00
2007,08,08,06,20,5.00
2007,08,08,06,21,5.00
2007,08,08,06,22,5.00
2007,08,08,06,23,6.40
2007,08,08,06,24,7.00
2007,08,08,06,25,7.00
2007,08,08,06,26,7.00
2007,08,08,06,27,7.00
2007,08,08,06,28,8.90
2007,08,08,06,29,9.00
2007,08,08,06,30,11.00
2007,08,08,06,31,11.00
2007,08,08,06,32,11.10
2007,08,08,06,33,12.00
2007,08,08,06,34,12.00
2007,08,08,06,35,12.50
2007,08,08,06,36,14.00
2007,08,08,06,37,14.00
2007,08,08,06,38,14.70
2007,08,08,06,39,16.00
2007,08,08,06,40,16.80
2007,08,08,06,41,18.50
2007,08,08,06,42,21.00
2007,08,08,06,43,23.00
2007,08,08,06,44,26.20
2007,08,08,06,45,28.00
2007,08,08,06,46,28.00
2007,08,08,06,47,29.40
2007,08,08,06,48,31.50
2007,08,08,06,49,30.40
2007,08,08,06,50,25.50
2007,08,08,06,51,23.10
2007,08,08,06,52,24.80
2007,08,08,06,53,25.00
2007,08,08,06,54,26.00
2007,08,08,06,55,26.00
2007,08,08,06,56,26.00
2007,08,08,06,57,26.00
2007,08,08,06,58,26.40
2007,08,08,06,59,28.60
2007,08,08,07,00,30.90
2007,08,08,07,01,33.70
2007,08,08,07,02,36.60
2007,08,08,07,03,39.40
2007,08,08,07,04,40.00
2007,08,08,07,05,41.10
2007,08,08,07,06,44.40
2007,08,08,07,07,47.90
2007,08,08,07,08,50.40
2007,08,08,07,09,49.60
2007,08,08,07,10,46.90
2007,08,08,07,11,44.50
2007,08,08,07,12,45.70
2007,08,08,07,13,46.00
2007,08,08,07,14,46.00
2007,08,08,07,15,46.90
2007,08,08,07,16,54.00
2007,08,08,07,17,52.70
2007,08,08,07,18,46.50
2007,08,08,07,19,41.50
2007,08,08,07,20,39.20
2007,08,08,07,21,40.80
2007,08,08,07,22,44.00
2007,08,08,07,23,44.90
2007,08,08,07,24,47.00
2007,08,08,07,25,46.60
2007,08,08,07,26,46.00
2007,08,08,07,27,46.50
2007,08,08,07,28,50.20
2007,08,08,07,29,53.60
2007,08,08,07,30,53.40
2007,08,08,07,31,53.00
2007,08,08,07,32,53.00
2007,08,08,07,33,55.30
2007,08,08,07,34,57.50
2007,08,08,07,35,59.80
2007,08,08,07,36,58.20
2007,08,08,07,37,59.80
2007,08,08,07,38,60.00
2007,08,08,07,39,64.80
2007,08,08,07,40,67.10
2007,08,08,07,41,69.10
2007,08,08,07,42,70.30
2007,08,08,07,43,72.40
2007,08,08,07,44,73.60
2007,08,08,07,45,71.50
2007,08,08,07,46,69.00
2007,08,08,07,47,65.50
2007,08,08,07,48,62.60
2007,08,08,07,49,62.00
2007,08,08,07,50,61.10
2007,08,08,07,51,58.90
2007,08,08,07,52,56.80
2007,08,08,07,53,54.70
2007,08,08,07,54,54.00
2007,08,08,07,55,55.30
2007,08,08,07,56,54.60
2007,08,08,07,57,53.20
2007,08,08,07,58,49.70
2007,08,08,07,59,49.00
2007,08,08,08,00,49.00
2007,08,08,08,01,49.00
2007,08,08,08,02,49.00
2007,08,08,08,03,51.00
2007,08,08,08,04,51.20
2007,08,08,08,05,53.10
2007,08,08,08,06,54.30
2007,08,08,08,07,56.40
2007,08,08,08,08,58.60
2007,08,08,08,09,60.60
2007,08,08,08,10,62.00
2007,08,08,08,11,62.00
2007,08,08,08,12,61.10
2007,08,08,08,13,61.60
2007,08,08,08,14,66.50
2007,08,08,08,15,73.80
2007,08,08,08,16,83.90
2007,08,08,08,17,94.20
2007,08,08,08,18,104.40
2007,08,08,08,19,112.40
2007,08,08,08,20,121.10
2007,08,08,08,21,130.50
2007,08,08,08,22,142.20
2007,08,08,08,23,157.30
2007,08,08,08,24,172.00
2007,08,08,08,25,187.20
2007,08,08,08,26,210.20
2007,08,08,08,27,231.40
2007,08,08,08,28,244.20
2007,08,08,08,29,243.90
2007,08,08,08,30,229.60
2007,08,08,08,31,218.10
2007,08,08,08,32,211.70
2007,08,08,08,33,207.80
2007,08,08,08,34,203.50
2007,08,08,08,35,198.60
2007,08,08,08,36,196.00
2007,08,08,08,37,193.50
2007,08,08,08,38,188.60
2007,08,08,08,39,181.70
2007,08,08,08,40,173.80
2007,08,08,08,41,165.10
2007,08,08,08,42,154.90
2007,08,08,08,43,145.90
2007,08,08,08,44,138.10
2007,08,08,08,45,132.60
2007,08,08,08,46,132.00
2007,08,08,08,47,132.00
2007,08,08,08,48,127.80
2007,08,08,08,49,124.30
2007,08,08,08,50,117.40
2007,08,08,08,51,111.70
2007,08,08,08,52,103.80
2007,08,08,08,53,97.40
2007,08,08,08,54,94.00
2007,08,08,08,55,91.00
2007,08,08,08,56,91.70
2007,08,08,08,57,94.60
2007,08,08,08,58,100.00
2007,08,08,08,59,107.70
2007,08,08,09,00,111.00
2007,08,08,09,01,117.90
2007,08,08,09,02,126.00
2007,08,08,09,03,130.50
2007,08,08,09,04,133.90
2007,08,08,09,05,139.70
2007,08,08,09,06,147.40
2007,08,08,09,07,160.10
2007,08,08,09,08,162.00
2007,08,08,09,09,199.90
2007,08,08,09,10,236.00
2007,08,08,09,11,246.00
2007,08,08,09,12,249.10
2007,08,08,09,13,301.80
2007,08,08,09,14,295.20
2007,08,08,09,15,284.20
2007,08,08,09,16,280.60
2007,08,08,09,17,276.80
2007,08,08,09,18,263.20
2007,08,08,09,19,237.40
2007,08,08,09,20,225.00
2007,08,08,09,21,223.10
2007,08,08,09,22,225.00
2007,08,08,09,23,233.20
2007,08,08,09,24,239.20
2007,08,08,09,25,246.60
2007,08,08,09,26,256.70
2007,08,08,09,27,267.10
2007,08,08,09,28,273.30
2007,08,08,09,29,268.50
2007,08,08,09,30,259.50
2007,08,08,09,31,249.50
2007,08,08,09,32,237.60
2007,08,08,09,33,230.00
2007,08,08,09,34,229.10
2007,08,08,09,35,224.90
2007,08,08,09,36,222.30
2007,08,08,09,37,215.60
2007,08,08,09,38,213.00
2007,08,08,09,39,214.20
2007,08,08,09,40,219.40
2007,08,08,09,41,224.80
2007,08,08,09,42,226.90
2007,08,08,09,43,218.40
2007,08,08,09,44,204.40
2007,08,08,09,45,193.30
2007,08,08,09,46,183.90
2007,08,08,09,47,172.10
2007,08,08,09,48,161.50
2007,08,08,09,49,158.00
2007,08,08,09,50,151.30
2007,08,08,09,51,145.20
2007,08,08,09,52,144.00
2007,08,08,09,53,144.00
2007,08,08,09,54,145.80
2007,08,08,09,55,150.70
2007,08,08,09,56,156.00
2007,08,08,09,57,160.00
2007,08,08,09,58,163.00
2007,08,08,09,59,163.80
2007,08,08,10,00,171.30
2007,08,08,10,01,175.40
2007,08,08,10,02,182.80
2007,08,08,10,03,190.50
2007,08,08,10,04,200.60
2007,08,08,10,05,213.20
2007,08,08,10,06,223.50
2007,08,08,10,07,227.00
2007,08,08,10,08,227.00
2007,08,08,10,09,224.80
2007,08,08,10,10,220.10
2007,08,08,10,11,215.50
2007,08,08,10,12,215.20
2007,08,08,10,13,219.20
2007,08,08,10,14,227.30
2007,08,08,10,15,237.50
2007,08,08,10,16,247.80
2007,08,08,10,17,250.90
2007,08,08,10,18,250.10
2007,08,08,10,19,250.00
2007,08,08,10,20,253.40
2007,08,08,10,21,260.40
2007,08,08,10,22,267.90
2007,08,08,10,23,277.00
2007,08,08,10,24,286.50
2007,08,08,10,25,292.50
2007,08,08,10,26,291.50
2007,08,08,10,27,281.10
2007,08,08,10,28,268.00
2007,08,08,10,29,256.20
2007,08,08,10,30,248.60
2007,08,08,10,31,243.40
2007,08,08,10,32,238.40
2007,08,08,10,33,232.30
2007,08,08,10,34,229.40
2007,08,08,10,35,229.70
2007,08,08,10,36,232.90
2007,08,08,10,37,238.90
2007,08,08,10,38,248.60
2007,08,08,10,39,254.20
2007,08,08,10,40,259.40
2007,08,08,10,41,268.50
2007,08,08,10,42,285.00
2007,08,08,10,43,301.20
2007,08,08,10,44,316.20
2007,08,08,10,45,317.80
2007,08,08,10,46,315.90
2007,08,08,10,47,315.20
2007,08,08,10,48,317.30
2007,08,08,10,49,324.90
2007,08,08,10,50,334.00
2007,08,08,10,51,340.50
2007,08,08,10,52,347.70
2007,08,08,10,53,364.30
2007,08,08,10,54,396.50
2007,08,08,10,55,433.30
2007,08,08,10,56,494.80
2007,08,08,10,57,533.00
2007,08,08,10,58,533.00
2007,08,08,10,59,533.00
2007,08,08,11,00,528.70
2007,08,08,11,01,528.60
2007,08,08,11,02,553.00
2007,08,08,11,03,559.00
2007,08,08,11,04,600.70
2007,08,08,11,05,603.00
2007,08,08,11,06,376.00
2007,08,08,11,07,349.40
2007,08,08,11,08,337.80
2007,08,08,11,09,336.00
2007,08,08,11,10,334.20
2007,08,08,11,11,326.20
2007,08,08,11,12,324.90
2007,08,08,11,13,331.80
2007,08,08,11,14,335.00
2007,08,08,11,15,320.60
2007,08,08,11,16,302.40
2007,08,08,11,17,294.50
2007,08,08,11,18,307.90
2007,08,08,11,19,357.90
2007,08,08,11,20,409.10
2007,08,08,11,21,467.30
2007,08,08,11,22,490.00
2007,08,08,11,23,490.00
2007,08,08,11,24,490.00
2007,08,08,11,25,571.70
2007,08,08,11,26,587.00
2007,08,08,11,27,587.00
2007,08,08,11,28,587.00
2007,08,08,11,29,494.00
2007,08,08,11,30,448.40
2007,08,08,11,31,460.70
2007,08,08,11,32,492.30
2007,08,08,11,33,425.80
2007,08,08,11,34,489.00
2007,08,08,11,35,593.40
2007,08,08,11,36,865.00
2007,08,08,11,37,838.00
2007,08,08,11,38,784.00
2007,08,08,11,39,784.00
2007,08,08,11,40,784.00
2007,08,08,11,41,784.00
2007,08,08,11,42,554.20
2007,08,08,11,43,414.60
2007,08,08,11,44,420.00
2007,08,08,11,45,420.00
2007,08,08,11,46,420.00
2007,08,08,11,47,835.20
2007,08,08,11,48,965.00
2007,08,08,11,49,965.00
2007,08,08,11,50,1023.60
2007,08,08,11,51,1027.00
2007,08,08,11,52,844.60
2007,08,08,11,53,835.00
2007,08,08,11,54,835.00
2007,08,08,11,55,835.00
2007,08,08,11,56,835.00
2007,08,08,11,57,805.80
2007,08,08,11,58,689.00
2007,08,08,11,59,689.00
2007,08,08,12,00,689.00
2007,08,08,12,01,689.00
2007,08,08,12,02,778.10
2007,08,08,12,03,830.70
2007,08,08,12,04,789.00
2007,08,08,12,05,856.80
2007,08,08,12,06,899.00
2007,08,08,12,07,884.80
2007,08,08,12,08,872.30
2007,08,08,12,09,865.90
2007,08,08,12,10,857.40
2007,08,08,12,11,856.00
2007,08,08,12,12,856.00
2007,08,08,12,13,851.30
2007,08,08,12,14,851.00
2007,08,08,12,15,847.00
2007,08,08,12,16,848.70
2007,08,08,12,17,846.30
2007,08,08,12,18,849.30
2007,08,08,12,19,851.00
2007,08,08,12,20,850.50
2007,08,08,12,21,850.30
2007,08,08,12,22,853.30
2007,08,08,12,23,853.70
2007,08,08,12,24,853.30
2007,08,08,12,25,856.40
2007,08,08,12,26,864.00
2007,08,08,12,27,871.70
2007,08,08,12,28,879.20
2007,08,08,12,29,893.40
2007,08,08,12,30,906.00
2007,08,08,12,31,935.70
2007,08,08,12,32,949.00
2007,08,08,12,33,949.00
2007,08,08,12,34,949.00
2007,08,08,12,35,949.00
2007,08,08,12,36,949.00
2007,08,08,12,37,896.00
2007,08,08,12,38,891.20
2007,08,08,12,39,898.10
2007,08,08,12,40,898.80
2007,08,08,12,41,888.70
2007,08,08,12,42,885.60
2007,08,08,12,43,883.20
2007,08,08,12,44,879.70
2007,08,08,12,45,880.50
2007,08,08,12,46,887.30
2007,08,08,12,47,882.50
2007,08,08,12,48,876.20
2007,08,08,12,49,874.50
2007,08,08,12,50,867.50
2007,08,08,12,51,863.40
2007,08,08,12,52,866.20
2007,08,08,12,53,863.10
2007,08,08,12,54,858.80
2007,08,08,12,55,858.00
2007,08,08,12,56,858.00
2007,08,08,12,57,874.80
2007,08,08,12,58,881.70
2007,08,08,12,59,887.70
2007,08,08,13,00,898.00
2007,08,08,13,01,908.00
2007,08,08,13,02,899.80
2007,08,08,13,03,896.80
2007,08,08,13,04,903.70
2007,08,08,13,05,900.80
2007,08,08,13,06,895.20
2007,08,08,13,07,891.70
2007,08,08,13,08,886.00
2007,08,08,13,09,879.50
2007,08,08,13,10,876.20
2007,08,08,13,11,875.00
2007,08,08,13,12,878.70
2007,08,08,13,13,884.30
2007,08,08,13,14,887.70
2007,08,08,13,15,885.80
2007,08,08,13,16,877.80
2007,08,08,13,17,874.30
2007,08,08,13,18,876.40
2007,08,08,13,19,877.00
2007,08,08,13,20,877.00
2007,08,08,13,21,877.00
2007,08,08,13,22,877.00
2007,08,08,13,23,877.00
2007,08,08,13,24,875.10
2007,08,08,13,25,872.10
2007,08,08,13,26,874.00
2007,08,08,13,27,874.00
2007,08,08,13,28,874.20
2007,08,08,13,29,874.70
2007,08,08,13,30,874.30
2007,08,08,13,31,876.30
2007,08,08,13,32,879.70
2007,08,08,13,33,879.30
2007,08,08,13,34,877.00
2007,08,08,13,35,877.00
2007,08,08,13,36,877.00
2007,08,08,13,37,877.00
2007,08,08,13,38,878.30
2007,08,08,13,39,880.30
2007,08,08,13,40,881.70
2007,08,08,13,41,884.90
2007,08,08,13,42,886.00
2007,08,08,13,43,884.30
2007,08,08,13,44,884.00
2007,08,08,13,45,885.90
2007,08,08,13,46,886.00
2007,08,08,13,47,889.00
2007,08,08,13,48,895.40
2007,08,08,13,49,904.70
2007,08,08,13,50,911.80
2007,08,08,13,51,917.70
2007,08,08,13,52,926.00
2007,08,08,13,53,927.10
2007,08,08,13,54,930.90
2007,08,08,13,55,933.00
2007,08,08,13,56,936.80
2007,08,08,13,57,947.70
2007,08,08,13,58,961.50
2007,08,08,13,59,973.00
2007,08,08,14,00,981.20
2007,08,08,14,01,988.40
2007,08,08,14,02,991.00
2007,08,08,14,03,990.30
2007,08,08,14,04,1000.50
2007,08,08,14,05,1018.30
2007,08,08,14,06,1026.60
2007,08,08,14,07,1031.60
2007,08,08,14,08,1030.30
2007,08,08,14,09,1028.00
2007,08,08,14,10,1027.00
2007,08,08,14,11,1033.40
2007,08,08,14,12,1052.90
2007,08,08,14,13,1007.00
2007,08,08,14,14,1007.00
2007,08,08,14,15,848.80
2007,08,08,14,16,393.70
2007,08,08,14,17,364.70
2007,08,08,14,18,360.00
2007,08,08,14,19,412.00
2007,08,08,14,20,490.00
2007,08,08,14,21,427.60
2007,08,08,14,22,350.20
2007,08,08,14,23,352.40
2007,08,08,14,24,334.30
2007,08,08,14,25,325.20
2007,08,08,14,26,332.00
2007,08,08,14,27,332.00
2007,08,08,14,28,853.70
2007,08,08,14,29,1032.40
2007,08,08,14,30,1035.90
2007,08,08,14,31,1034.00
2007,08,08,14,32,1034.00
2007,08,08,14,33,413.00
2007,08,08,14,34,413.00
2007,08,08,14,35,414.50
2007,08,08,14,36,427.00
2007,08,08,14,37,427.00
2007,08,08,14,38,407.30
2007,08,08,14,39,363.70
2007,08,08,14,40,385.60
2007,08,08,14,41,366.00
2007,08,08,14,42,386.40
2007,08,08,14,43,427.70
2007,08,08,14,44,441.00
2007,08,08,14,45,441.00
2007,08,08,14,46,441.00
2007,08,08,14,47,697.20
2007,08,08,14,48,868.00
2007,08,08,14,49,553.30
2007,08,08,14,50,396.00
2007,08,08,14,51,442.60
2007,08,08,14,52,455.00
2007,08,08,14,53,455.00
2007,08,08,14,54,922.50
2007,08,08,14,55,1013.00
2007,08,08,14,56,1013.00
2007,08,08,14,57,512.00
2007,08,08,14,58,512.00
2007,08,08,14,59,512.00
2007,08,08,15,00,474.50
2007,08,08,15,01,287.20
2007,08,08,15,02,291.60
2007,08,08,15,03,305.20
2007,08,08,15,04,322.40
2007,08,08,15,05,341.60
2007,08,08,15,06,355.80
2007,08,08,15,07,353.50
2007,08,08,15,08,351.70
2007,08,08,15,09,374.40
2007,08,08,15,10,368.90
2007,08,08,15,11,371.00
2007,08,08,15,12,374.10
2007,08,08,15,13,371.00
2007,08,08,15,14,371.00
2007,08,08,15,15,371.00
2007,08,08,15,16,941.30
2007,08,08,15,17,1025.90
2007,08,08,15,18,1025.00
2007,08,08,15,19,1025.00
2007,08,08,15,20,1025.00
2007,08,08,15,21,1025.00
2007,08,08,15,22,1025.00
2007,08,08,15,23,1025.00
2007,08,08,15,24,927.80
2007,08,08,15,25,610.70
2007,08,08,15,26,537.30
2007,08,08,15,27,531.00
2007,08,08,15,28,531.00
2007,08,08,15,29,531.00
2007,08,08,15,30,531.00
2007,08,08,15,31,531.00
2007,08,08,15,32,707.60
2007,08,08,15,33,836.80
2007,08,08,15,34,835.00
2007,08,08,15,35,643.40
2007,08,08,15,36,625.60
2007,08,08,15,37,640.00
2007,08,08,15,38,640.00
2007,08,08,15,39,640.00
2007,08,08,15,40,793.50
2007,08,08,15,41,807.00
2007,08,08,15,42,808.70
2007,08,08,15,43,802.80
2007,08,08,15,44,799.40
2007,08,08,15,45,787.60
2007,08,08,15,46,763.90
2007,08,08,15,47,699.40
2007,08,08,15,48,672.40
2007,08,08,15,49,612.00
2007,08,08,15,50,629.30
2007,08,08,15,51,696.80
2007,08,08,15,52,744.40
2007,08,08,15,53,700.70
2007,08,08,15,54,704.00
2007,08,08,15,55,732.30
2007,08,08,15,56,719.40
2007,08,08,15,57,709.70
2007,08,08,15,58,704.30
2007,08,08,15,59,699.30
2007,08,08,16,00,693.80
2007,08,08,16,01,688.20
2007,08,08,16,02,682.60
2007,08,08,16,03,682.00
2007,08,08,16,04,682.00
2007,08,08,16,05,680.00
2007,08,08,16,06,678.80
2007,08,08,16,07,674.80
2007,08,08,16,08,673.00
2007,08,08,16,09,672.50
2007,08,08,16,10,668.20
2007,08,08,16,11,662.40
2007,08,08,16,12,659.30
2007,08,08,16,13,656.00
2007,08,08,16,14,655.20
2007,08,08,16,15,654.00
2007,08,08,16,16,651.50
2007,08,08,16,17,647.80
2007,08,08,16,18,645.80
2007,08,08,16,19,643.80
2007,08,08,16,20,641.00
2007,08,08,16,21,638.50
2007,08,08,16,22,639.60
2007,08,08,16,23,637.00
2007,08,08,16,24,635.20
2007,08,08,16,25,635.00
2007,08,08,16,26,635.00
2007,08,08,16,27,631.20
2007,08,08,16,28,629.10
2007,08,08,16,29,630.10
2007,08,08,16,30,612.50
2007,08,08,16,31,604.70
2007,08,08,16,32,574.10
2007,08,08,16,33,543.60
2007,08,08,16,34,511.20
2007,08,08,16,35,477.50
2007,08,08,16,36,481.70
2007,08,08,16,37,545.90
2007,08,08,16,38,529.20
2007,08,08,16,39,535.00
2007,08,08,16,40,591.90
2007,08,08,16,41,622.00
2007,08,08,16,42,572.90
2007,08,08,16,43,516.80
2007,08,08,16,44,534.60
2007,08,08,16,45,550.00
2007,08,08,16,46,479.30
2007,08,08,16,47,446.60
2007,08,08,16,48,419.90
2007,08,08,16,49,480.00
2007,08,08,16,50,517.30
2007,08,08,16,51,573.00
2007,08,08,16,52,575.20
2007,08,08,16,53,612.10
2007,08,08,16,54,611.70
2007,08,08,16,55,605.00
2007,08,08,16,56,584.20
2007,08,08,16,57,512.80
2007,08,08,16,58,475.70
2007,08,08,16,59,459.00
2007,08,08,17,00,410.20
2007,08,08,17,01,376.00
2007,08,08,17,02,388.10
2007,08,08,17,03,408.00
2007,08,08,17,04,505.20
2007,08,08,17,05,564.30
2007,08,08,17,06,546.00
2007,08,08,17,07,544.70
2007,08,08,17,08,548.00
2007,08,08,17,09,496.70
2007,08,08,17,10,525.50
2007,08,08,17,11,474.50
2007,08,08,17,12,510.40